STARLINK-11397, 62590

Orbit data source: Space-Track

STARLINK-11397, 62590 is a payload satellite owned by SpaceX/Seattle (US) in LEO that was launched on Mon, 13 Jan 2025 UTC via an FALCON 9 launch vehicle from the Air Force Eastern Test Range (AFETR). Payloads include a variety of satellites, spacecraft, and rockets equipped with specific instruments for various scientific and technological missions. These include communications satellites like Starlink; space stations such as the ISS; scientific satellites like the Hubble; Earth observation satellites from companies like Planet Labs, Umbra, and HawkEye 360; GPS; miniature CubeSats for education and research; and military/defense satellites.

Loading next visibility...
STARLINK-11397 details
Identifier
62590, 2025-008D
Orbit
LEO
Last TLE update16 hours ago
Origin
Flag of USSpaceX/Seattle (US)
ManufacturerSpaceX/Seattle
MissionOperational spacecraft
Bus & MotorSTARLINK V2M, Unknown motor
Mass730 kg wet, ~700 kg dry
Launch date (UTC)
2025-01-13 (3 weeks ago)
Launch vehicle
FALCON 9
Launch site
Air Force Eastern Test Range (AFETR)
Object type
Payload
Rocket body
Debris
Shape & HBRUnknown
Radar Cross SectionLarge (>1 m²)

Expand to show TLE details & history

TLE from 16 hours ago
0 STARLINK-11397
1 62590U 25008D   25035.61931292  .00005183  00000-0  32586-4 0  9990
2 62590  43.0003   7.8056 0001690 264.3468  95.7210 15.77888822  4586
Epoch: 2025-02-04T14:51Z
Definitive object data (Epoch: 2025-02-04T14:51:48.636Z)
Latitude0.00002°
Longitude9.83097°
Altitude336.307 km
Speed7.709 km/s
True Right ascension00h 31m 13s
True Declination0° 00' 00"
Sunlit
Object was in daylight at TLE epoch
Visualization TLE readout
Latitude-13.5492°
Longitude-159.35027°
Altitude338.497 km
Speed7.707 km/s
Apparent Right ascension16h 14m 23s
Apparent Declination-41° 59' 23"
Sunlit
Object is in full shadow
Visualization observer readout
Local Sidereal Time08:56:08
Azimuth116.777° SE
Elevation-38.327°
Doppler factor1
Orbital elements
Apogee altitude339.546 km
Perigee altitude337.276 km
Semi-major axis6,716.548 km
Eccentricity0.000169
Inclination43.0003°
RAAN7.8056°
Arg. of periapsis264.3468°
True anomaly95.74027°
Mean anomaly95.721°
Eccentric anomaly95.73063°
Mean motion3.94297 °/min
BSTAR0.000032586
Orbital period91.3 mins
Loading maneuver chart data...
Loading historical data...
Loading historical data...
Loading historical data...
Loading historical data...
Loading historical data...
Loading historical data...
Loading historical data...

STARLINK-11397 Visibility forecast

Observer location: undefined°, undefined

Span
Click to sort rows by Start time (UTC) header in descending order
Start Az.
Max El. time (UTC)
Max El. Az.
Max El.
End time (UTC)
End Az.
4 mins2025-02-06 05:15:53.999Z292.53° NW2025-02-06 05:17:53.999Z60.366° ENE42.986°2025-02-06 05:19:53.999Z101.074° ESE
|